FW4212 Weather Reports


Display with metric or nautical units.
time (UTC)temp
F
wind
direction
speed
MPH
gust
MPH
rain 1hr
in
rain 24hr
in
rain mn
in
humidity
%
barometer
mb
20260904145522 85 228 0.0 2.0 0.00 0.00 0.00 74 1017.9
20260904145021 85 226 0.0 2.0 0.00 0.00 0.00 74 1017.8
20260904144522 85 222 0.0 3.0 0.00 0.00 0.00 74 1017.9
20260904144024 85 305 0.0 3.0 0.00 0.00 0.00 77 1017.9
20260904143520 84 273 0.0 2.0 0.00 0.00 0.00 79 1017.8
20260904143029 84 257 0.0 3.0 0.00 0.00 0.00 80 1017.9
20260904142519 83 257 0.0 5.0 0.00 0.00 0.00 75 1017.9
20260904142023 83 234 2.0 5.0 0.00 0.00 0.00 75 1017.8
20260904141518 83 321 0.0 3.0 0.00 0.00 0.00 79 1017.8
20260904141016 82 319 1.0 3.0 0.00 0.00 0.00 77 1017.8
20260904140515 82 281 0.0 3.0 0.00 0.00 0.00 80 1017.8
20260904140031 82 254 0.0 3.0 0.00 0.00 0.00 81 1017.8
20260904135515 81 263 1.0 3.0 0.00 0.00 0.00 81 1017.9
20260904135011 81 217 0.0 3.0 0.00 0.00 0.00 82 1017.8
20260904134510 80 220 1.0 3.0 0.00 0.00 0.00 82 1017.7
20260904134009 80 211 1.0 4.0 0.00 0.00 0.00 82 1017.7
20260904133509 80 225 2.0 4.0 0.00 0.00 0.00 82 1017.6
20260904133008 80 257 1.0 3.0 0.00 0.00 0.00 83 1017.5
20260904132508 79 201 0.0 4.0 0.00 0.00 0.00 84 1017.6
20260904132010 79 254 0.0 3.0 0.00 0.00 0.00 85 1017.6
20260904131505 79 223 0.0 3.0 0.00 0.00 0.00 86 1017.5
20260904131005 78 228 0.0 4.0 0.00 0.00 0.00 88 1017.6
20260904130503 78 229 1.0 4.0 0.00 0.00 0.00 88 1017.6
20260904130003 78 213 0.0 3.0 0.00 0.00 0.00 89 1017.5
20260904125600 77 243 0.0 2.0 0.00 0.00 0.00 91 1017.6
20260904125101 76 271 0.0 2.0 0.00 0.00 0.00 93 1017.5
20260904124601 75 222 0.0 0.0 0.00 0.00 0.00 94 1017.5
20260904124057 75 222 0.0 0.0 0.00 0.00 0.00 96 1017.5
20260904123558 74 222 0.0 2.0 0.00 0.00 0.00 96 1017.6
20260904123057 74 211 0.0 2.0 0.00 0.00 0.00 97 1017.6
20260904122558 73 206 0.0 1.0 0.00 0.00 0.00 97 1017.6
20260904122057 72 206 0.0 0.0 0.00 0.00 0.00 97 1017.6
20260904121559 72 206 0.0 2.0 0.00 0.00 0.00 97 1017.5
20260904121100 72 206 0.0 2.0 0.00 0.00 0.00 97 1017.6
20260904120556 72 206 0.0 0.0 0.00 0.00 0.00 98 1017.5
20260904120100 71 206 0.0 0.0 0.00 0.00 0.00 97 1017.5
20260904115555 71 206 0.0 0.0 0.00 0.00 0.00 97 1017.5
20260904115055 71 206 0.0 0.0 0.00 0.00 0.00 98 1017.5
20260904114555 71 206 0.0 0.0 0.00 0.00 0.00 97 1017.5
20260904114055 70 206 0.0 0.0 0.00 0.00 0.00 97 1017.5
20260904113555 70 206 0.0 0.0 0.00 0.00 0.00 97 1017.4
20260904113054 70 206 0.0 0.0 0.00 0.00 0.00 97 1017.4
20260904112554 70 206 0.0 0.0 0.00 0.00 0.00 97 1017.4
20260904112054 70 206 0.0 0.0 0.00 0.00 0.00 97 1017.4
20260904111601 70 206 0.0 0.0 0.00 0.00 0.00 97 1017.4
20260904111055 70 206 0.0 0.0 0.00 0.00 0.00 97 1017.4
20260904110553 70 206 0.0 0.0 0.00 0.00 0.00 97 1017.4
20260904110056 70 206 0.0 0.0 0.00 0.00 0.00 97 1017.3
20260904105552 70 206 0.0 0.0 0.00 0.00 0.00 97 1017.3
20260904105054 70 206 0.0 0.0 0.00 0.00 0.00 97 1017.3
20260904104557 70 206 0.0 0.0 0.00 0.00 0.00 97 1017.3
20260904104050 70 206 0.0 0.0 0.00 0.00 0.00 97 1017.2
20260904103549 70 206 0.0 0.0 0.00 0.00 0.00 97 1017.2
20260904103050 70 206 0.0 0.0 0.00 0.00 0.00 97 1017.1
20260904102550 70 206 0.0 0.0 0.00 0.00 0.00 97 1017.1
20260904102049 70 206 0.0 0.0 0.00 0.00 0.00 97 1017.0
20260904101549 70 206 0.0 0.0 0.00 0.00 0.00 97 1017.1
20260904101052 70 206 0.0 0.0 0.00 0.00 0.00 97 1017.0
20260904100551 70 206 0.0 0.0 0.00 0.00 0.00 97 1017.0
20260904100048 70 206 0.0 0.0 0.00 0.00 0.00 97 1016.9
20260904095547 70 206 0.0 0.0 0.00 0.00 0.00 97 1016.8
20260904095046 71 206 0.0 0.0 0.00 0.00 0.00 97 1016.8
20260904094547 71 206 0.0 0.0 0.00 0.00 0.00 97 1016.8
20260904094049 71 206 0.0 0.0 0.00 0.00 0.00 97 1016.7
20260904093546 71 206 0.0 0.0 0.00 0.00 0.00 97 1016.7
20260904093047 71 206 0.0 0.0 0.00 0.00 0.00 97 1016.5
20260904092544 71 206 0.0 0.0 0.00 0.00 0.00 97 1016.5
20260904092045 71 206 0.0 0.0 0.00 0.00 0.00 97 1016.6
20260904091545 71 206 0.0 0.0 0.00 0.00 0.00 97 1016.5
20260904091044 71 206 0.0 0.0 0.00 0.00 0.00 97 1016.6
20260904090543 71 206 0.0 0.0 0.00 0.00 0.00 97 1016.5
20260904090043 71 206 0.0 0.0 0.00 0.00 0.00 97 1016.4
20260904085547 71 206 0.0 0.0 0.00 0.00 0.00 97 1016.5
20260904085043 71 206 0.0 0.0 0.00 0.00 0.00 97 1016.5
20260904084544 71 206 0.0 0.0 0.00 0.00 0.00 97 1016.5
20260904084042 71 206 0.0 0.0 0.00 0.00 0.00 97 1016.5
20260904083542 71 206 0.0 0.0 0.00 0.00 0.00 97 1016.4
20260904083042 71 206 0.0 0.0 0.00 0.00 0.00 97 1016.2
20260904082543 71 206 0.0 0.0 0.00 0.00 0.00 97 1016.3
20260904082043 72 206 0.0 0.0 0.00 0.00 0.00 97 1016.2
20260904081540 72 206 0.0 0.0 0.00 0.00 0.00 96 1016.3
20260904081040 72 206 0.0 0.0 0.00 0.00 0.00 96 1016.4
20260904080540 72 206 0.0 0.0 0.00 0.00 0.00 96 1016.3
20260904080040 72 206 0.0 0.0 0.00 0.00 0.00 96 1016.3
20260904075540 72 206 0.0 0.0 0.00 0.00 0.00 96 1016.4
20260904075039 72 206 0.0 0.0 0.00 0.00 0.00 96 1016.3
20260904074544 72 206 0.0 0.0 0.00 0.00 0.00 96 1016.2
20260904074036 72 206 0.0 0.0 0.00 0.00 0.00 96 1016.4
20260904073540 72 206 0.0 0.0 0.00 0.00 0.00 96 1016.4
20260904073036 72 206 0.0 0.0 0.00 0.00 0.00 96 1016.3
20260904072536 72 206 0.0 0.0 0.00 0.00 0.00 96 1016.3
20260904072035 72 206 0.0 0.0 0.00 0.00 0.00 96 1016.4
20260904071542 73 206 0.0 0.0 0.00 0.00 0.00 96 1016.5
20260904071034 73 206 0.0 0.0 0.00 0.00 0.00 96 1016.8
20260904070534 73 206 0.0 0.0 0.00 0.00 0.00 96 1016.7
20260904070033 73 206 0.0 0.0 0.00 0.00 0.00 96 1016.7
20260904065532 73 206 0.0 0.0 0.00 0.00 0.00 96 1016.7
20260904065133 73 206 0.0 0.0 0.00 0.00 0.00 96 1016.7
20260904064536 73 206 0.0 0.0 0.00 0.00 0.00 96 1016.7
20260904064031 73 206 0.0 0.0 0.00 0.00 0.00 95 1016.7
20260904063531 73 206 0.0 0.0 0.00 0.00 0.00 96 1016.7
20260904063035 73 206 0.0 0.0 0.00 0.00 0.00 95 1016.9
20260904062530 73 206 0.0 0.0 0.00 0.00 0.00 95 1016.9
20260904062029 73 206 0.0 0.0 0.00 0.00 0.00 95 1017.0
20260904061529 73 206 0.0 0.0 0.00 0.00 0.00 95 1017.0
20260904061028 73 206 0.0 0.0 0.00 0.00 0.00 95 1017.0
20260904060528 74 206 0.0 0.0 0.00 0.00 0.00 95 1016.9
20260904060028 74 206 0.0 0.0 0.00 0.00 0.00 95 1017.1
20260904055526 74 206 0.0 0.0 0.00 0.00 0.00 95 1017.2
20260904055025 74 206 0.0 0.0 0.00 0.00 0.00 95 1017.2
20260904054533 74 206 0.0 0.0 0.00 0.00 0.00 95 1017.2
20260904054025 74 206 0.0 0.0 0.00 0.00 0.00 95 1017.2
20260904053524 74 206 0.0 0.0 0.00 0.00 0.00 95 1017.3
20260904053028 74 206 0.0 0.0 0.00 0.00 0.00 95 1017.3
20260904052524 74 206 0.0 0.0 0.00 0.00 0.00 95 1017.3
20260904052025 74 206 0.0 0.0 0.00 0.00 0.00 95 1017.4
20260904051523 74 206 0.0 0.0 0.00 0.00 0.00 95 1017.4
20260904051022 74 206 0.0 0.0 0.00 0.00 0.00 95 1017.4
20260904050524 74 206 0.0 0.0 0.00 0.00 0.00 94 1017.6
20260904050021 74 206 0.0 0.0 0.00 0.00 0.00 94 1017.5
20260904045523 74 206 0.0 0.0 0.00 0.00 0.00 95 1017.6
20260904045020 75 206 0.0 0.0 0.00 0.00 0.00 95 1017.5
20260904044519 75 206 0.0 0.0 0.00 0.00 0.00 95 1017.6
20260904044019 75 206 0.0 0.0 0.00 0.00 0.00 95 1017.6
20260904043518 75 206 0.0 0.0 0.00 0.00 0.00 94 1017.7
20260904043019 75 206 0.0 0.0 0.00 0.00 0.00 94 1017.6
20260904042519 75 206 0.0 0.0 0.00 0.00 0.00 94 1017.7
20260904042022 75 206 0.0 1.0 0.00 0.00 0.00 94 1017.6
20260904041517 75 206 0.0 2.0 0.00 0.00 0.00 94 1017.8
20260904041017 75 206 1.0 2.0 0.00 0.00 0.00 94 1017.8
20260904040517 75 213 0.0 0.0 0.00 0.00 0.00 93 1017.7
20260904040015 75 213 0.0 0.0 0.00 0.00 0.00 94 1017.7
20260904035515 75 213 0.0 0.0 0.00 0.00 0.00 93 1017.7
20260904035014 75 213 0.0 0.0 0.00 0.00 0.00 93 1017.8
20260904034513 75 213 0.0 0.0 0.00 0.00 0.00 94 1017.8
20260904034013 75 213 0.0 0.0 0.00 0.00 0.00 94 1017.8
20260904033516 75 213 0.0 3.0 0.00 0.00 0.00 93 1017.8
20260904033013 75 213 0.0 3.0 0.00 0.00 0.00 93 1017.8
20260904032513 76 206 0.0 0.0 0.00 0.00 0.00 92 1017.8
20260904032013 76 214 0.0 0.0 0.00 0.00 0.00 93 1017.7
20260904031513 76 214 0.0 0.0 0.00 0.00 0.00 93 1017.8
20260904031016 76 214 0.0 0.0 0.00 0.00 0.00 92 1017.9
20260904030517 76 214 0.0 0.0 0.00 0.00 0.00 92 1017.8
20260904030013 76 214 0.0 0.0 0.00 0.00 0.00 92 1017.8
20260904025513 76 214 0.0 0.0 0.00 0.00 0.00 92 1017.7
20260904025012 76 126 0.0 0.0 0.00 0.00 0.00 92 1017.7
20260904024511 76 126 0.0 0.0 0.00 0.00 0.00 91 1017.8
20260904024012 76 126 0.0 0.0 0.00 0.00 0.00 91 1017.8
20260904023511 76 126 0.0 0.0 0.00 0.00 0.00 91 1017.9
20260904023012 77 227 0.0 0.0 0.00 0.00 0.00 91 1018.0
20260904022513 77 227 0.0 0.0 0.00 0.00 0.00 90 1018.0
20260904022011 77 227 0.0 0.0 0.00 0.00 0.00 89 1018.1
20260904021511 77 227 0.0 0.0 0.00 0.00 0.00 89 1018.1
20260904021011 77 227 0.0 0.0 0.00 0.00 0.00 89 1018.0
20260904020511 77 227 0.0 0.0 0.00 0.00 0.00 91 1018.0
20260904020011 77 227 0.0 0.0 0.00 0.00 0.00 91 1018.0
20260904015511 78 227 0.0 0.0 0.00 0.00 0.00 91 1017.9
20260904015013 78 127 0.0 0.0 0.00 0.00 0.00 90 1017.9
20260904014510 78 127 0.0 0.0 0.00 0.00 0.00 90 1017.8
20260904014012 78 127 0.0 0.0 0.00 0.00 0.00 90 1017.7
20260904013510 78 127 0.0 0.0 0.00 0.00 0.00 89 1017.7
20260904013009 78 127 0.0 0.0 0.00 0.00 0.00 89 1017.8
20260904012509 78 127 0.0 0.0 0.00 0.00 0.00 89 1017.7
20260904012010 78 127 0.0 0.0 0.00 0.00 0.00 89 1017.4
20260904011525 78 126 0.0 0.0 0.00 0.00 0.00 88 1017.3
20260904011009 79 127 0.0 0.0 0.00 0.00 0.00 88 1017.3
20260904010509 79 127 0.0 0.0 0.00 0.00 0.00 88 1017.3
20260904010012 79 127 0.0 0.0 0.00 0.00 0.00 87 1017.2
20260904005513 79 127 0.0 0.0 0.00 0.00 0.00 86 1017.1
20260904005008 79 127 0.0 0.0 0.00 0.00 0.00 86 1017.2
20260904004509 80 127 0.0 0.0 0.00 0.00 0.00 86 1017.0
20260904004008 80 127 0.0 0.0 0.00 0.00 0.00 85 1017.0
20260904003507 80 127 0.0 0.0 0.00 0.00 0.00 84 1017.0
20260904003012 80 127 0.0 0.0 0.00 0.00 0.00 83 1016.7
20260904002508 81 127 0.0 0.0 0.00 0.00 0.00 82 1016.7
20260904002008 81 127 0.0 0.0 0.00 0.00 0.00 81 1016.6
20260904001507 81 127 0.0 0.0 0.00 0.00 0.00 80 1016.6
20260904001010 82 127 0.0 0.0 0.00 0.00 0.00 78 1016.6
20260904000509 82 127 0.0 0.0 0.00 0.00 0.00 78 1016.6
20260904000010 82 127 0.0 0.0 0.00 0.00 0.00 76 1016.4
20260903235508 82 127 0.0 0.0 0.00 0.00 0.00 76 1016.5
20260903235006 83 127 0.0 0.0 0.00 0.00 0.00 75 1016.3
20260903234506 83 127 0.0 0.0 0.00 0.00 0.00 75 1016.3
20260903234007 84 127 0.0 0.0 0.00 0.00 0.00 73 1016.3
20260903233508 84 127 0.0 0.0 0.00 0.00 0.00 72 1016.2
20260903233006 85 127 0.0 0.0 0.00 0.00 0.00 72 1016.2
20260903232506 85 127 0.0 0.0 0.00 0.00 0.00 72 1016.2
20260903232006 85 127 0.0 0.0 0.00 0.00 0.00 70 1016.2
20260903231508 86 127 0.0 0.0 0.00 0.00 0.00 69 1016.1
20260903231005 86 127 0.0 0.0 0.00 0.00 0.00 67 1016.1
20260903230505 86 127 0.0 0.0 0.00 0.00 0.00 67 1016.1
20260903230005 86 127 0.0 0.0 0.00 0.00 0.00 66 1016.2
20260903225505 87 127 0.0 0.0 0.00 0.00 0.00 65 1016.1
20260903225003 87 127 0.0 0.0 0.00 0.00 0.00 65 1016.1
20260903224508 87 127 0.0 0.0 0.00 0.00 0.00 66 1016.1
20260903224003 88 126 0.0 0.0 0.00 0.00 0.00 63 1016.1
20260903223504 88 126 0.0 0.0 0.00 0.00 0.00 61 1016.1
20260903223004 89 127 0.0 1.0 0.00 0.00 0.00 61 1016.1
20260903222502 89 127 0.0 2.0 0.00 0.00 0.00 60 1016.0
20260903222003 90 106 0.0 1.0 0.00 0.00 0.00 58 1016.0
20260903221503 91 134 0.0 1.0 0.00 0.00 0.00 53 1016.0
20260903221003 91 102 0.0 2.0 0.00 0.00 0.00 55 1016.0
20260903220502 91 153 0.0 2.0 0.00 0.00 0.00 54 1016.0
20260903220001 91 86 0.0 2.0 0.00 0.00 0.00 56 1016.1
20260903215602 91 88 0.0 3.0 0.00 0.00 0.00 55 1016.1
20260903215059 91 117 0.0 3.0 0.00 0.00 0.00 53 1016.1
20260903214559 91 129 0.0 3.0 0.00 0.00 0.00 58 1016.3
20260903214059 92 113 0.0 4.0 0.00 0.00 0.00 58 1016.3
20260903213559 91 228 0.0 4.0 0.00 0.00 0.00 54 1016.3
20260903213059 90 116 0.0 2.0 0.00 0.00 0.00 62 1016.3
20260903212559 91 126 0.0 2.0 0.00 0.00 0.00 59 1016.2
20260903212058 91 201 0.0 2.0 0.00 0.00 0.00 55 1016.3
20260903211557 92 147 0.0 2.0 0.00 0.00 0.00 54 1016.4
20260903211057 92 30 0.0 3.0 0.00 0.00 0.00 52 1016.3
20260903210557 92 237 0.0 3.0 0.00 0.00 0.00 55 1016.4
20260903205556 92 233 1.0 3.0 0.00 0.00 0.00 52 1016.4
20260903205058 91 202 0.0 2.0 0.00 0.00 0.00 53 1016.5
20260903204555 91 5 0.0 2.0 0.00 0.00 0.00 56 1016.6
20260903204055 92 330 0.0 3.0 0.00 0.00 0.00 53 1016.6
20260903203554 92 88 0.0 4.0 0.00 0.00 0.00 54 1016.7
20260903203054 92 128 2.0 4.0 0.00 0.00 0.00 54 1016.7
20260903202556 92 36 0.0 6.0 0.00 0.00 0.00 53 1016.7
20260903202053 92 102 3.0 6.0 0.00 0.00 0.00 54 1016.8
20260903201553 92 105 1.0 3.0 0.00 0.00 0.00 56 1016.8
20260903201052 92 99 0.0 2.0 0.00 0.00 0.00 55 1016.8
20260903200552 92 55 0.0 6.0 0.00 0.00 0.00 51 1016.9
20260903195551 92 20 0.0 4.0 0.00 0.00 0.00 49 1017.0
20260903195050 92 98 1.0 4.0 0.00 0.00 0.00 49 1017.0
20260903194553 93 98 2.0 4.0 0.00 0.00 0.00 52 1017.1
20260903194049 93 183 0.0 3.0 0.00 0.00 0.00 56 1017.1
20260903193548 92 233 0.0 4.0 0.00 0.00 0.00 52 1017.2
20260903193054 92 215 1.0 7.0 0.00 0.00 0.00 52 1017.2
20260903192546 93 136 1.0 6.0 0.00 0.00 0.00 56 1017.3
20260903192045 92 266 0.0 3.0 0.00 0.00 0.00 55 1017.3
20260903191545 92 92 1.0 3.0 0.00 0.00 0.00 53 1017.4
20260903191046 92 290 0.0 4.0 0.00 0.00 0.00 55 1017.4
20260903190544 92 312 0.0 6.0 0.00 0.00 0.00 54 1017.5
20260903190047 91 88 2.0 6.0 0.00 0.00 0.00 56 1017.4
20260903185543 92 81 0.0 3.0 0.00 0.00 0.00 58 1017.5
20260903185042 92 305 0.0 5.0 0.00 0.00 0.00 54 1017.5
20260903184542 92 115 1.0 5.0 0.00 0.00 0.00 56 1017.6
20260903184041 90 269 1.0 3.0 0.00 0.00 0.00 60 1017.6
20260903183540 88 50 0.0 4.0 0.00 0.00 0.00 68 1017.7
20260903183042 91 49 1.0 4.0 0.00 0.00 0.00 60 1017.8
20260903182541 91 271 0.0 2.0 0.00 0.00 0.00 57 1017.8
20260903182040 90 32 0.0 5.0 0.00 0.00 0.00 57 1017.8
20260903181540 90 28 1.0 5.0 0.00 0.00 0.00 61 1017.9
20260903181041 89 111 0.0 2.0 0.00 0.00 0.00 61 1018.0
20260903180541 91 27 0.0 2.0 0.00 0.00 0.00 57 1017.9
20260903180040 91 314 0.0 3.0 0.00 0.00 0.00 54 1018.0
20260903175539 91 9 1.0 3.0 0.00 0.00 0.00 58 1018.2
20260903175038 91 280 0.0 4.0 0.00 0.00 0.00 59 1018.2
20260903174537 91 138 1.0 4.0 0.00 0.00 0.00 57 1018.4
20260903174041 90 208 1.0 3.0 0.00 0.00 0.00 57 1018.2
20260903173538 91 71 1.0 3.0 0.00 0.00 0.00 62 1018.4
20260903173039 91 101 0.0 6.0 0.00 0.00 0.00 61 1018.5
20260903172536 91 169 2.0 4.0 0.00 0.00 0.00 59 1018.5
20260903172038 91 281 0.0 3.0 0.00 0.00 0.00 59 1018.5
20260903171534 90 273 0.0 3.0 0.00 0.00 0.00 63 1018.6
20260903171033 90 161 1.0 4.0 0.00 0.00 0.00 62 1018.6
20260903170533 90 100 0.0 5.0 0.00 0.00 0.00 64 1018.7
20260903170033 90 296 1.0 5.0 0.00 0.00 0.00 62 1018.7
20260903165532 90 268 2.0 7.0 0.00 0.00 0.00 61 1018.8
20260903165030 90 74 1.0 7.0 0.00 0.00 0.00 67 1018.8
20260903164530 90 86 1.0 4.0 0.00 0.00 0.00 62 1018.9
20260903164029 90 86 0.0 4.0 0.00 0.00 0.00 63 1018.9
20260903163529 90 130 2.0 4.0 0.00 0.00 0.00 63 1019.0
20260903163029 89 64 0.0 7.0 0.00 0.00 0.00 68 1019.0
20260903162528 89 18 2.0 7.0 0.00 0.00 0.00 67 1018.9
20260903162028 89 82 1.0 4.0 0.00 0.00 0.00 67 1019.0
20260903161528 89 81 1.0 4.0 0.00 0.00 0.00 66 1019.0
20260903161027 89 218 0.0 2.0 0.00 0.00 0.00 65 1019.0
20260903160527 89 82 0.0 2.0 0.00 0.00 0.00 65 1019.0
20260903160027 89 61 0.0 2.0 0.00 0.00 0.00 69 1019.2
20260903155525 88 70 0.0 3.0 0.00 0.00 0.00 69 1019.1
20260903155024 88 63 0.0 3.0 0.00 0.00 0.00 69 1019.2
20260903154524 88 302 1.0 3.0 0.00 0.00 0.00 66 1019.2
20260903154023 87 26 0.0 4.0 0.00 0.00 0.00 70 1019.3
20260903153525 87 79 0.0 4.0 0.00 0.00 0.00 65 1019.3
20260903153022 87 338 0.0 3.0 0.00 0.00 0.00 67 1019.3
20260903152521 87 30 1.0 4.0 0.00 0.00 0.00 70 1019.3
20260903152022 87 94 1.0 4.0 0.00 0.00 0.00 68 1019.4
20260903151520 86 95 0.0 4.0 0.00 0.00 0.00 68 1019.4
20260903151020 86 63 0.0 4.0 0.00 0.00 0.00 71 1019.4
20260903150520 87 157 1.0 4.0 0.00 0.00 0.00 71 1019.4
20260903150031 86 129 0.0 3.0 0.00 0.00 0.00 71 1019.4